Weather History for Hanford, CA

Change the Weather History Date:

Monday, October 29, 2012

  Actual Average Record
Temperature  
Mean Temperature 64 °F 59 °F  
Max Temperature 84 °F 73 °F 86 °F (2003)
Min Temperature 44 °F 44 °F 31 °F (2009)
Degree Days  
Heating Degree Days 1    
Month to date heating degree days 80  
Since 1 July heating degree days 80  
Cooling Degree Days 0    
Month to date cooling degree days 95  
Year to date cooling degree days 2018  
Growing Degree Days 14 (Base 50)    
Moisture  
Dew Point 47 °F    
Average Humidity 61    
Maximum Humidity 93    
Minimum Humidity 28    
Precipitation  
Precipitation 0.00 in 0.04 in 0.38 in (2000)
Month to date precipitation 0.14 0.44  
Year to date precipitation 4.72 7.41  
Since 1 July precipitation 0.14 0.65  
Snow  
Snow 0.00 in - - ()
Month to date snowfall 0.0  
Since 1 July snowfall 0.0  
Since 1 September snowfall 0.0  
Snow Depth 0.00 in    
Sea Level Pressure  
Sea Level Pressure 30.05 in    
Wind  
Wind Speed 1 mph (NE)    
Max Wind Speed 7 mph    
Max Gust Speed 9 mph    
Visibility 6 miles    
Events      
T = Trace of Precipitation, MM = Missing Value Source: NWS Daily Summary

Daily Weather History Graph

Daily Weather History Graph

Search for Another Location

Airport:

Trip Planner

Search our weather history database for the weather conditions in past years. The results will help you decide how hot, cold, wet, or windy it might be!

Date:

Astronomy

Oct. 29, 2012 Rise Set
Actual Time 7:19 AM PDT 6:04 PM PDT
Civil Twilight 6:52 AM PDT 6:31 PM PDT
Nautical Twilight 6:22 AM PDT 7:01 PM PDT
Astronomical Twilight 5:52 AM PDT 7:31 PM PDT
Moon 6:01 PM PDT (10/29) 7:13 AM PDT (10/29)
Length of Visible Light 11h 38m
Length of Day
10h 45m
Full, 100% of the Moon is Illuminated
Oct 29
Full
Oct 29
Full
Nov 6
Last Quarter
Nov 13
New
Nov 20
First Quarter

Hourly Weather History & Observations

Time (PDT) Temp. Windchill Dew Point Humidity Pressure Visibility Wind Dir Wind Speed Gust Speed Precip Events Conditions
12:53 AM 51.1 °F - 45.0 °F 80% 30.04 in 6.0 mi Calm Calm - N/A   Haze
1:53 AM 51.1 °F - 46.0 °F 83% 30.04 in 6.0 mi Calm Calm - N/A   Haze
2:53 AM 48.9 °F - 45.0 °F 86% 30.05 in 4.0 mi NE 3.5 mph - N/A   Clear
3:53 AM 48.9 °F - 46.0 °F 90% 30.04 in 5.0 mi Calm Calm - N/A   Clear
4:53 AM 46.9 °F - 41.0 °F 80% 30.05 in 4.0 mi Calm Calm - N/A   Haze
5:53 AM 46.9 °F - 45.0 °F 93% 30.05 in 4.0 mi SE 3.5 mph - N/A   Clear
6:53 AM 46.9 °F - 44.1 °F 90% 30.08 in 3.0 mi Calm Calm - N/A   Clear
7:35 AM 46.4 °F - 42.8 °F 87% 30.08 in 2.5 mi Calm Calm - N/A   Clear
7:42 AM 46.4 °F 45.2 °F 44.6 °F 93% 30.08 in 3.0 mi ENE 3.5 mph - N/A   Clear
7:53 AM 46.9 °F - 44.1 °F 90% 30.09 in 3.0 mi ENE 3.5 mph - N/A   Clear
8:53 AM 55.9 °F - 48.9 °F 77% 30.12 in 3.0 mi Calm Calm - N/A   Haze
1:53 PM 80.1 °F - 46.9 °F 31% 30.05 in 6.0 mi Variable 4.6 mph - N/A   Haze
2:53 PM 82.0 °F - 46.9 °F 29% 30.04 in 7.0 mi Variable 3.5 mph - N/A   Clear
3:53 PM 82.9 °F - 48.0 °F 29% 30.02 in 7.0 mi Calm Calm - N/A   Clear
4:53 PM 82.0 °F - 51.1 °F 34% 30.01 in 7.0 mi Calm Calm - N/A   Clear
5:53 PM 75.9 °F - 51.1 °F 42% 30.02 in 7.0 mi North 3.5 mph - N/A   Clear
6:53 PM 66.9 °F - 52.0 °F 59% 30.03 in 8.0 mi Calm Calm - N/A   Clear
7:53 PM 59.0 °F - 51.1 °F 75% 30.03 in 8.0 mi NNE 4.6 mph - N/A   Clear
8:53 PM 59.0 °F - 51.1 °F 75% 30.04 in 8.0 mi Calm Calm - N/A   Clear
9:53 PM 57.0 °F - 51.1 °F 81% 30.06 in 8.0 mi Calm Calm - N/A   Clear
10:53 PM 55.0 °F - 48.0 °F 77% 30.06 in 7.0 mi Calm Calm - N/A   Clear